Regional Weather Roundup
Issued by NWS

Home | Current Version | Previous Version | Graphics & Text | Print | Product List | Glossary On
Versions: 1 2 3 4 5 6 7 8 9 10 11 12 13 14 15 16 17 18 19 20 21 22 23 24 25 26 27 28 29 30 31 32 33 34 35 36 37 38 39 40 41 42 43 44 45 46 47 48 49 50
610
ASUS45 KCYS 022210
RWRWY

WYOMING REGIONAL WEATHER ROUNDUP
NATIONAL WEATHER SERVICE CHEYENNE WY
400 PM MDT MON MAY 02 2016

NOTE:  "FAIR" INDICATES FEW OR NO CLOUDS BELOW 12,000 FEET
WITH NO SIGNIFICANT WEATHER AND/OR OBSTRUCTIONS TO VISIBILITY.

WYZ001-022300-
YELLOWSTONE NATIONAL PARK

CITY           SKY/WX    TMP DP  RH WIND       PRES   REMARKS
LK YELLOWSTONE   N/A     53   8  16 VRB5      30.27F
W YELLOWSTONE  NOT AVBL

$$
WYZ002>013-054>058-071-098>099-022300-
NORTHERN WYOMING

CITY           SKY/WX    TMP DP  RH WIND       PRES   REMARKS
JACKSON        SUNNY     61  16  17 CALM      30.20F
CODY           FAIR      63  27  25 NE13      30.15F
GREYBULL       FAIR      69  20  15 N12       30.10F
WORLAND        FAIR      65  24  21 NW6       30.12F
SHERIDAN       FAIR      66  34  30 NW17G23   30.11F
BUFFALO          N/A    N/A N/A N/A MISG      30.13F
GILLETTE       FAIR      60  33  36 N17G28    30.11F
HULETT         FAIR      61  32  33 N15G23    30.09F
NEWCASTLE      FAIR      61  25  25 N12G26    30.08S

$$
WYZ014>020-022>026-101>103-022300-
CENTRAL WYOMING

CITY           SKY/WX    TMP DP  RH WIND       PRES   REMARKS
BIG PINEY      FAIR      58   3  11 SE7       30.22F
PINEDALE       FAIR      55  10  16 W5        30.22F
DUBOIS         FAIR      59   7  12 E7G17     30.19S
LANDER         FAIR      59  27  29 E3        30.16F
RIVERTON       FAIR      61  22  22 VRB5      30.17F
CASPER         FAIR      59  24  26 W10       30.14F
DOUGLAS        FAIR      64  30  27 NW17G29   30.11F

$$
WYZ021-027>030-104>119-022300-
SOUTHERN WYOMING

CITY           SKY/WX    TMP DP  RH WIND       PRES   REMARKS
EVANSTON       FAIR      55  19  24 SE3       30.23F
KEMMERER         N/A     55   9  15 NE5       30.24F
FORT BRIDGER   CLEAR     55  21  26 CALM      30.26F
ROCK SPRINGS   FAIR      53  14  21 VRB6      30.23F
DIXON          FAIR      57  21  24 SW7       30.22F
RAWLINS        FAIR      56  11  16 VRB7G20   30.19F
SARATOGA       FAIR      55  18  22 NW12G20   30.20F
LARAMIE        FAIR      43  27  53 W10       30.17F
CHEYENNE       FAIR      54   8  16 NW21G29   30.14F
TORRINGTON     FAIR      63  29  27 NW21G31   30.04F
PINE BLUFFS    FAIR      55  18  22 NW18G24   30.12F

$$




USA.gov is the U.S. government's official web portal to all federal, state and local government web resources and services.